This is the latest recevied weather packets stored in our database for station/object OM6ABF-12. If no packets are shown the sender has not sent any weather packets the latest 10 day(s).
| Time | Temp. | Humidity | Pressure | Rain* | Wind** | Luminosity | Snow |
|---|---|---|---|---|---|---|---|
| 1777261542 | 0° C | 39% | 1030.7 hPa | - | - | - | - |
| 1777260586 | 0° C | 39% | 1030.7 hPa | - | - | - | - |
| 1777259628 | -0.56° C | 41% | 1030.7 hPa | - | - | - | - |
| 1777258671 | -0.56° C | 42% | 1030.7 hPa | - | - | - | - |
| 1777257715 | -1.11° C | 44% | 1030.7 hPa | - | - | - | - |
| 1777256758 | -1.11° C | 46% | 1030.8 hPa | - | - | - | - |
| 1777255799 | -1.11° C | 46% | 1030.6 hPa | - | - | - | - |
| 1777254842 | -1.11° C | 47% | 1030.6 hPa | - | - | - | - |
| 1777253885 | -1.11° C | 47% | 1030.5 hPa | - | - | - | - |
| 1777252928 | -1.11° C | 49% | 1030.6 hPa | - | - | - | - |
| 1777251970 | -1.11° C | 47% | 1030.7 hPa | - | - | - | - |
| 1777251014 | -1.11° C | 45% | 1030.7 hPa | - | - | - | - |
| 1777250058 | -1.11° C | 46% | 1030.6 hPa | - | - | - | - |
| 1777249101 | -1.11° C | 47% | 1030.5 hPa | - | - | - | - |
| 1777248144 | -1.11° C | 47% | 1030.7 hPa | - | - | - | - |
| 1777247186 | -1.11° C | 46% | 1030.9 hPa | - | - | - | - |
| 1777246229 | -1.67° C | 48% | 1031 hPa | - | - | - | - |
| 1777245272 | -1.11° C | 47% | 1031 hPa | - | - | - | - |
| 1777244315 | -1.11° C | 44% | 1030.9 hPa | - | - | - | - |
| 1777243357 | -0.56° C | 44% | 1030.8 hPa | - | - | - | - |
| 1777242408 | -0.56° C | 43% | 1030.8 hPa | - | - | - | - |
| 1777241490 | -0.56° C | 45% | 1030.8 hPa | - | - | - | - |
| 1777241444 | -0.56° C | 45% | 1030.8 hPa | - | - | - | - |
| 1777240487 | -0.56° C | 43% | 1030.7 hPa | - | - | - | - |
| 1777239530 | -0.56° C | 46% | 1030.5 hPa | - | - | - | - |
* Rain since midnight (hover to see other rain measurements)
** Current wind speed in m/s (hover to see current wind gust speed)